This demonstration page uses our WeatherBlox Daily Observations layout. Learn more.

Left ArrowRight Arrow

Hourly Observations for October 26, 2018

Temp ( °F °C ) Dew Point ( °F °C ) Humidity (%) Winds ( mph kmh ) Pressure ( in mb ) Visibility ( mi km ) Precip ( " mm )
12:07 am 00:07 Mostly Cloudy with Fog 44 6.7 44 6.7 100 100 S 5 7 29.94 1014 0 0 0.00 0.00
12:53 am 00:53 Mostly Cloudy with Fog 43 6.1 43 6.1 100 100 SSW 5 7 29.93 1014 0 0 0.00 0.00
1:53 am 01:53 Mostly Cloudy with Fog 43 6.1 43 6.1 100 100 SSW 5 7 29.93 1014 0 0 0.00 0.00
2:53 am 02:53 Mostly Cloudy with Fog 42 5.6 42 5.6 100 100 SSW 6 9 29.92 1013 0 0 0.00 0.00
3:53 am 03:53 Mostly Cloudy with Fog 41 5 41 5 100 100 Calm 29.91 1013 0 0 0.00 0.00
4:53 am 04:53 Mostly Cloudy with Fog 40 4.4 40 4.4 100 100 WSW 7 11 29.92 1013 1 1 0.00 0.00
5:37 am 05:37 Cloudy with Mist and Fog 39 3.9 39 3.9 100 100 WSW 6 9 29.94 1014 2 3 0.00 0.00
5:41 am 05:41 Cloudy with Mist and Fog 39 3.9 39 3.9 100 100 W 7 11 29.97 1015 3 5 0.00 0.00
5:51 am 05:51 Mostly Cloudy 39 4 39 4 100 100 W 6 9 29.94 1014 10 16 0.00 0.00
5:53 am 05:53 Mostly Cloudy 39 3.9 39 3.9 100 100 W 6 9 29.91 1013 10 16 0.00 0.00
6:53 am 06:53 Mostly Cloudy 39 3.9 39 3.9 100 100 Calm 29.92 1013 10 16 0.00 0.00
7:53 am 07:53 Clear 39 3.9 38 3.3 96 96 W 3 6 29.92 1013 10 16 0.00 0.00
8:53 am 08:53 Sunny 42 5.6 40 4.4 92 92 WNW 5 7 29.93 1013 10 16 0.00 0.00
9:53 am 09:53 Sunny 51 10.6 44 6.7 77 77 NW 10 17 29.93 1014 10 16 0.00 0.00
10:53 am 10:53 Sunny 54 12.2 45 7.2 72 72 NW 9 15 29.94 1014 10 16 0.00 0.00
11:53 am 11:53 Sunny 59 15 44 6.7 58 58 NW 13 20 29.93 1014 10 16 0.00 0.00
12:53 pm 12:53 Sunny 64 17.8 44 6.7 48 48 NNW 12 19 29.91 1013 10 16 0.00 0.00
1:53 pm 13:53 Sunny 67 19.4 41 5 39 39 N 13 20 29.88 1012 10 16 0.00 0.00
2:53 pm 14:53 Sunny 68 20 40 4.4 36 36 NW 12 19 29.86 1011 10 16 0.00 0.00
3:53 pm 15:53 Sunny 68 20 38 3.3 33 33 NNW 9 15 29.84 1011 10 16 0.00 0.00
4:53 pm 16:53 Sunny 68 20 39 3.9 35 35 NNW 13 20 29.85 1011 10 16 0.00 0.00
5:53 pm 17:53 Cloudy 65 18.3 40 4.4 40 40 NNW 6 9 29.85 1011 10 16 0.00 0.00
6:53 pm 18:53 Mostly Cloudy 59 15 42 5.6 54 54 NNW 6 9 29.87 1012 10 16 0.00 0.00
7:53 pm 19:53 Mostly Cloudy 55 12.8 40 4.4 57 57 NW 5 7 29.89 1012 10 16 0.00 0.00
8:53 pm 20:53 Partly Cloudy 51 10.6 40 4.4 66 66 WNW 8 13 29.90 1012 10 16 0.00 0.00
9:53 pm 21:53 Mostly Clear 50 10 40 4.4 68 68 WNW 7 11 29.90 1013 10 16 0.00 0.00
10:53 pm 22:53 Mostly Clear 48 8.9 39 3.9 71 71 NW 7 11 29.91 1013 10 16 0.00 0.00
11:53 pm 23:53 Clear 47 8.3 37 2.8 69 69 W 7 11 29.90 1013 10 16 0.00 0.00

Powered by AerisWeather